Total_Precipitation_Accumulation
0.78 0.87 0.96 1.01 1.08 1.17 1.26 1.30 1.34 1.30 1.28 1.21 0.97 0.88 0.83 0.79 0.80 0.71 0.74 0.55 0.34 0.27 0.26 0.26 0.25 0.25 0.33 0.50 0.69 0.84 1.05 1.19 1.26 1.31 1.32 1.38 1.44 1.52
0.86 0.97 1.00 1.01 1.03 1.12 1.25 1.41 1.50 1.47 1.35 1.13 0.99 0.99 0.95 0.84 0.77 0.63 0.56 0.51 0.36 0.26 0.24 0.25 0.24 0.24 0.26 0.38 0.52 0.66 0.82 0.96 1.09 1.19 1.25 1.28 1.32 1.40
0.77 0.89 0.97 0.99 1.03 1.08 1.17 1.26 1.40 1.52 1.39 1.20 1.15 1.19 1.20 1.12 0.93 0.73 0.55 0.46 0.38 0.30 0.23 0.21 0.21 0.26 0.32 0.37 0.46 0.55 0.62 0.72 0.86 1.00 1.12 1.21 1.27 1.31
0.79 0.81 0.81 0.86 0.96 0.98 1.05 1.09 1.19 1.39 1.35 1.27 1.31 1.34 1.35 1.26 1.11 0.92 0.70 0.55 0.46 0.35 0.25 0.21 0.20 0.21 0.24 0.26 0.34 0.47 0.57 0.63 0.68 0.74 0.82 0.94 1.07 1.17
0.71 0.70 0.68 0.70 0.75 0.83 0.93 0.92 0.94 1.07 1.21 1.29 1.41 1.47 1.54 1.41 1.19 1.01 0.86 0.74 0.54 0.40 0.31 0.24 0.22 0.21 0.20 0.20 0.24 0.32 0.46 0.59 0.66 0.71 0.75 0.82 0.90 0.99
0.59 0.56 0.58 0.61 0.63 0.67 0.76 0.81 0.84 0.92 1.05 1.16 1.35 1.55 1.56 1.59 1.43 1.19 1.06 0.96 0.73 0.50 0.41 0.33 0.28 0.24 0.21 0.18 0.18 0.22 0.33 0.50 0.66 0.73 0.79 0.90 0.98 1.01
0.54 0.49 0.48 0.47 0.49 0.55 0.58 0.63 0.70 0.79 0.84 0.94 1.11 1.35 1.48 1.56 1.49 1.28 1.12 1.10 0.96 0.67 0.53 0.47 0.43 0.36 0.32 0.26 0.19 0.16 0.24 0.38 0.59 0.75 0.83 0.94 1.07 1.15
0.47 0.46 0.41 0.38 0.41 0.42 0.40 0.46 0.53 0.58 0.67 0.80 0.89 1.09 1.27 1.36 1.44 1.49 1.33 1.14 1.08 0.93 0.77 0.71 0.62 0.55 0.44 0.33 0.25 0.18 0.17 0.26 0.38 0.54 0.70 0.84 0.96 1.11
0.41 0.42 0.34 0.29 0.35 0.37 0.34 0.31 0.34 0.38 0.46 0.62 0.74 0.84 1.04 1.22 1.36 1.51 1.47 1.36 1.25 1.15 1.02 0.97 0.76 0.62 0.54 0.45 0.36 0.23 0.18 0.17 0.23 0.31 0.41 0.57 0.70 0.82
0.35 0.39 0.38 0.34 0.34 0.35 0.34 0.29 0.26 0.27 0.31 0.38 0.49 0.65 0.89 1.20 1.35 1.42 1.49 1.52 1.48 1.35 1.19 1.18 1.06 0.87 0.76 0.66 0.55 0.37 0.26 0.20 0.20 0.22 0.25 0.32 0.44 0.56
0.32 0.35 0.38 0.36 0.36 0.29 0.31 0.32 0.32 0.31 0.28 0.33 0.40 0.51 0.70 0.96 1.31 1.40 1.38 1.28 1.27 1.08 0.84 0.84 0.93 0.95 0.97 0.90 0.77 0.62 0.46 0.33 0.28 0.29 0.30 0.31 0.36 0.45
0.44 0.42 0.39 0.37 0.35 0.29 0.31 0.35 0.33 0.31 0.31 0.31 0.33 0.38 0.46 0.63 0.92 1.13 1.12 0.99 0.88 0.87 0.64 0.52 0.55 0.59 0.72 0.76 0.71 0.67 0.60 0.56 0.48 0.39 0.33 0.33 0.42 0.45
0.49 0.50 0.45 0.38 0.31 0.29 0.31 0.36 0.35 0.36 0.42 0.43 0.41 0.40 0.44 0.51 0.62 0.81 0.96 0.94 0.80 0.65 0.56 0.48 0.46 0.43 0.44 0.50 0.55 0.56 0.58 0.60 0.58 0.55 0.50 0.44 0.47 0.52
0.59 0.58 0.57 0.45 0.35 0.33 0.33 0.34 0.35 0.37 0.44 0.51 0.48 0.43 0.42 0.42 0.48 0.62 0.76 0.83 0.86 0.75 0.62 0.54 0.49 0.43 0.39 0.39 0.40 0.40 0.44 0.55 0.65 0.73 0.69 0.64 0.61 0.66
0.65 0.63 0.60 0.51 0.42 0.38 0.41 0.40 0.37 0.38 0.44 0.49 0.48 0.40 0.36 0.38 0.46 0.58 0.70 0.77 0.79 0.80 0.70 0.57 0.50 0.46 0.40 0.39 0.36 0.34 0.36 0.43 0.52 0.66 0.80 0.83 0.80 0.78
0.67 0.65 0.60 0.57 0.51 0.47 0.49 0.45 0.40 0.45 0.48 0.47 0.48 0.49 0.47 0.47 0.49 0.53 0.59 0.65 0.70 0.71 0.64 0.57 0.51 0.46 0.43 0.38 0.38 0.38 0.36 0.39 0.40 0.46 0.65 0.86 1.02 1.09
0.84 0.85 0.78 0.70 0.61 0.56 0.55 0.55 0.53 0.57 0.54 0.54 0.57 0.61 0.58 0.51 0.48 0.49 0.56 0.57 0.56 0.56 0.57 0.54 0.49 0.47 0.43 0.33 0.34 0.36 0.37 0.36 0.32 0.30 0.37 0.55 0.80 1.00
0.90 0.91 0.87 0.79 0.69 0.65 0.64 0.63 0.60 0.59 0.55 0.56 0.58 0.62 0.63 0.56 0.48 0.47 0.52 0.55 0.53 0.50 0.48 0.48 0.47 0.47 0.47 0.42 0.29 0.25 0.27 0.26 0.25 0.27 0.31 0.36 0.47 0.57
0.88 0.88 0.83 0.78 0.71 0.68 0.67 0.66 0.61 0.60 0.59 0.59 0.59 0.60 0.63 0.61 0.55 0.49 0.47 0.51 0.53 0.54 0.49 0.44 0.41 0.37 0.35 0.32 0.30 0.22 0.18 0.17 0.17 0.23 0.31 0.30 0.31 0.33
0.82 0.83 0.79 0.75 0.71 0.68 0.64 0.65 0.65 0.64 0.61 0.59 0.60 0.59 0.60 0.57 0.57 0.51 0.45 0.44 0.48 0.53 0.52 0.44 0.35 0.28 0.24 0.23 0.22 0.24 0.22 0.19 0.17 0.17 0.22 0.24 0.23 0.19
0.82 0.79 0.74 0.68 0.66 0.65 0.63 0.61 0.60 0.59 0.58 0.61 0.60 0.57 0.58 0.53 0.50 0.50 0.48 0.45 0.45 0.48 0.47 0.39 0.32 0.30 0.30 0.32 0.30 0.26 0.24 0.23 0.23 0.21 0.20 0.22 0.23 0.23
0.79 0.73 0.70 0.63 0.60 0.60 0.60 0.58 0.58 0.57 0.57 0.60 0.60 0.58 0.56 0.49 0.43 0.44 0.47 0.45 0.40 0.40 0.43 0.41 0.39 0.37 0.37 0.36 0.33 0.28 0.27 0.27 0.27 0.26 0.24 0.19 0.18 0.19
0.69 0.65 0.63 0.57 0.53 0.50 0.48 0.49 0.50 0.51 0.52 0.53 0.53 0.55 0.56 0.50 0.43 0.41 0.43 0.45 0.43 0.41 0.46 0.49 0.45 0.40 0.35 0.33 0.33 0.34 0.34 0.33 0.32 0.32 0.30 0.20 0.11 0.08